Tracking 35331 objects as of 16-Sep-2026
HD Live streaming from Space Station
objects crossing your sky now

SNOE


SNOE is no longer on orbit


NORAD ID: 25233
Int'l Code: 1998-012A
Launch date: February 26, 1998
Source: United States (US)
Launch site: Pegasus launched from Western Range Air Space (WRAS)
Decay date: 2003-12-13
Your satellite tracking list
Your tracking list is empty




NASA's NSSDC Master Catalog

Two Line Element Set (TLE):
1 25233U 98012A   03347.18357689  .11247794  28808-5  31715-3 0  9995
2 25233 097.6438 318.1827 0004058 224.3078 135.7787 16.45382449322457
Source of the keplerian elements: AFSPC